FENGYUN 1C DEB, 29735

Orbit data source: Space-Track

FENGYUN 1C DEB, 29735 is space debris in SSO originally from a launch on Mon, 10 May 1999 UTC launched from the Taiyaun Space Center, China (TSC). Fengyun 1C debris stems from the Chinese weather satellite Fengyun-1C, which was intentionally destroyed by a Chinese anti-satellite missile in 2007. This event dramatically increased the amount of space debris, with thousands of trackable fragments posing hazards to satellites and human spaceflight. The Fengyun 1C debris cloud has become a focal point in discussions about space sustainability and the need for international regulations to prevent the creation of new debris.

Loading next visibility...
Identifier
29735, 1999-025Z
Orbit
SSO
Country
Flag of CNCN / PRC
Related business
Manufacturer
Unknown
Mission
Spacecraft
Bus & Motor
Unknown
Mass
Unknown
Launch date (UTC)
1999-05-10 (27 years ago)
Launch vehicle
Unknown
Launch site
Taiyaun Space Center, China (TSC)
Object type
Payload
Rocket body
Debris
Shape & HBR
Unknown shape, 0.2 m
Radar Cross Section
Medium (>0.1 m² and <1 m²)

Expand to show TLE details & history
Last TLE update: 14 hours ago

TLE from 14 hours ago
0 FENGYUN 1C DEB
1 29735U 99025Z   26236.49318611  .00000569  00000-0  10029-2 0  9997
2 29735  99.3837 114.1183 0704269 330.6525  25.6685 12.75893548906636
Epoch: 2026-08-24T11:50Z
TLE epoch observation values (Epoch: 2026-08-24T11:50:11.279Z)
Latitude
-0.00007°
Longitude
-36.20278°
Altitude
877.538 km
Speed
7.641 km/s
True Right ascension
07h 36m 28s
True Declination
0° 00' 00"
Sunlit
Object was in daylight at epoch
Visualization orbit readout
Latitude
Unknown
Longitude
Unknown
Altitude
Unknown
Speed
Unknown
Apparent Right ascension
Unknown
Apparent Declination
Unknown
Sunlit
N/A
Visualization observer readout
Local Sidereal Time
16:39:48
Azimuth
Unknown
Elevation
Unknown
Doppler factor
Unknown
Orbital elements
Apogee altitude
1,900.04 km
Perigee altitude
810.743 km
Semi-major axis
7,733.528 km
Eccentricity
0.07043
Inclination
99.3837°
RAAN
114.1183°
Arg. of periapsis
330.6525°
True anomaly
29.4616°
Mean anomaly
25.6685°
Eccentric anomaly
27.53385°
Mean motion
3.19137 °/min
Orbital period
112.8 mins
BSTAR
0.0010029
Loading maneuver chart data...
Computing Atmospheric mass density...
Loading historical data...
Loading historical data...
Loading historical data...
Loading historical data...
Loading historical data...
Loading historical data...
Loading historical data...

Documentation

Showing up to 5 results
|